Address 0x9a266b700f17638c99501a129f7abfcadae1bf69 2

 
 
Txn Hash Method
Block
From
To
Value [Txn Fee]
0xf06af39dc01066dbdf886edc0498c32e013097ed2387d72d0a3291b754f142a2Transfer Matic243000302022-01-29 10:20:245 mins ago0x9a266b700f17638c99501a129f7abfcadae1bf69OUT 0x0a76d8e685e999a0818cb88e97a61e9ee1062bc30 MATIC0.000713075914 8.58796505
0x3c56aba3f45b8b095fdfd5885907ad00341b5694128fb36efd56a3d05b2adffaTransfer Matic243000282022-01-29 10:20:205 mins ago0x9a266b700f17638c99501a129f7abfcadae1bf69OUT 0x0a76d8e685e999a0818cb88e97a61e9ee1062bc30 MATIC0.000714743652 8.606806665
0x9f2cdc2b225e759f1e7b51c12f4c5de69f95e24e05bdb9ca67fa6cc9e3a31f37Transfer Matic243000262022-01-29 10:20:165 mins ago0x9a266b700f17638c99501a129f7abfcadae1bf69OUT 0x0a76d8e685e999a0818cb88e97a61e9ee1062bc30 MATIC0.000710330156 8.553660185
0x3e84502ddc28722c8f1a8bbe8f3198308d642c6b58271e6464379a90c0e3db99Transfer Matic243000212022-01-29 10:20:065 mins ago0x9a266b700f17638c99501a129f7abfcadae1bf69OUT 0x0a76d8e685e999a0818cb88e97a61e9ee1062bc30 MATIC0.000538574156 6.485407211
0x23a6d73717666e1a9955f6d13e139a3813cefc7a0380fd62b6ad5756629da9feTransfer Matic243000192022-01-29 10:20:025 mins ago0x9a266b700f17638c99501a129f7abfcadae1bf69OUT 0x0a76d8e685e999a0818cb88e97a61e9ee1062bc30 MATIC0.000713786919 8.595285868
0x6979ac7b0bdf6abfd3b5689fb9256a1f300ae67cddd4ae509407e6a9f0d04e79Transfer Matic243000172022-01-29 10:19:585 mins ago0x9a266b700f17638c99501a129f7abfcadae1bf69OUT 0x0a76d8e685e999a0818cb88e97a61e9ee1062bc30 MATIC0.000891150265 15.356187364
0x69b6f72faeb514f863cdb3d02439808ff3e25af5d00fde9913786bf61c556366Transfer Matic243000152022-01-29 10:19:545 mins ago0x9a266b700f17638c99501a129f7abfcadae1bf69OUT 0x0a76d8e685e999a0818cb88e97a61e9ee1062bc30 MATIC0.001307718647 15.747298391
0xfff0cb0c818a221fee8ff86a79ebf844d14a636808a49bb4b4d21a89e50dfa65Transfer Matic243000132022-01-29 10:19:505 mins ago0x9a266b700f17638c99501a129f7abfcadae1bf69OUT 0x0a76d8e685e999a0818cb88e97a61e9ee1062bc30 MATIC0.000734544597 8.845245858
0x84d6e5283a8ed553d850c86f8ac6654965cfe9c6b5d7e2f111abfaaf3aa9934eTransfer Matic243000112022-01-29 10:19:465 mins ago0x9a266b700f17638c99501a129f7abfcadae1bf69OUT 0x0a76d8e685e999a0818cb88e97a61e9ee1062bc30 MATIC0.000340074714 4.095114815
0xab2a338cd36bd45c5250cb3f63f08b8dabc4ca131dfe71eb0ac36f03c7afc2afTransfer Matic243000092022-01-29 10:19:425 mins ago0x9a266b700f17638c99501a129f7abfcadae1bf69OUT 0x0a76d8e685e999a0818cb88e97a61e9ee1062bc30 MATIC0.000691755151 8.329983519
0xc69ddb4cc4d6141f62a3d66c335172713d2bc5b38b8b5f3f335c1072a9e25a1cTransfer Matic243000072022-01-29 10:19:386 mins ago0x9a266b700f17638c99501a129f7abfcadae1bf69OUT 0x0a76d8e685e999a0818cb88e97a61e9ee1062bc30 MATIC0.000724168935 8.720304117
0x69b7970d5210c62c990cef314217de34a3cec9f666794509dda5006483fd0a78Transfer Matic243000052022-01-29 10:19:346 mins ago0x9a266b700f17638c99501a129f7abfcadae1bf69OUT 0x0a76d8e685e999a0818cb88e97a61e9ee1062bc30 MATIC0.000743660678 8.955019972
0x35a2f781ccacd7931d2ad908685ed2ae119bed28fb0c84b727b57c4f3967fb0fTransfer Matic243000032022-01-29 10:19:306 mins ago0x9a266b700f17638c99501a129f7abfcadae1bf69OUT 0x0a76d8e685e999a0818cb88e97a61e9ee1062bc30 MATIC0.000734543174 8.845228734
0xd2d87b93d7b7f3534d9f6683ef6939d92731a8c38277dbbbeace43b141cccbddTransfer Matic243000012022-01-29 10:19:266 mins ago0x9a266b700f17638c99501a129f7abfcadae1bf69OUT 0x0a76d8e685e999a0818cb88e97a61e9ee1062bc30 MATIC0.000734448634 8.844090295
0x361a9458e5f0c242e52461594dffeaaf098ddd6221a1a1a476fc7fa247119105Transfer Matic242999992022-01-29 10:19:226 mins ago0x9a266b700f17638c99501a129f7abfcadae1bf69OUT 0x0a76d8e685e999a0818cb88e97a61e9ee1062bc30 MATIC0.000726675724 8.750490391
0xf6696aa783b23975df18d7373c3f6adf95c087e1de94ef42e086b899e5e53c13Transfer Matic242999972022-01-29 10:19:186 mins ago0x9a266b700f17638c99501a129f7abfcadae1bf69OUT 0x0a76d8e685e999a0818cb88e97a61e9ee1062bc30 MATIC0.000505029135 8.700798283
0x5f8003b0ccfac2ff579af8a54a8dc8d5f53db56f7af0575431197f3df6af8dedTransfer Matic242999952022-01-29 10:19:146 mins ago0x9a266b700f17638c99501a129f7abfcadae1bf69OUT 0x0a76d8e685e999a0818cb88e97a61e9ee1062bc30 MATIC0.000722423254 8.700540205
0x044b3651b75afb24becaa3ad8bbc170cf5f4df6b45d3beb6cdba51303faa8ef8Transfer Matic242999932022-01-29 10:19:106 mins ago0x9a266b700f17638c99501a129f7abfcadae1bf69OUT 0x0a76d8e685e999a0818cb88e97a61e9ee1062bc30 MATIC0.000716295508 8.625493814
0x880afe9c4bc1e08251c5eb90b612ab8b6e82f08663fdbe2e51f5652f6f5be14fTransfer Matic242999912022-01-29 10:19:066 mins ago0x9a266b700f17638c99501a129f7abfcadae1bf69OUT 0x0a76d8e685e999a0818cb88e97a61e9ee1062bc30 MATIC0.00039044673 4.702364514
0xe8aa2087d7ffead267fd0867a4b95cfc4fcf15b8895bfbaca1e275baf5a3fe93Transfer Matic242999892022-01-29 10:19:026 mins ago0x9a266b700f17638c99501a129f7abfcadae1bf69OUT 0x0a76d8e685e999a0818cb88e97a61e9ee1062bc30 MATIC0.00018687971 2.250369812
0x1b2df14fba54a399e6a04af5788bfefb5c9284fa8cffdbf34886af230f5065b3Transfer Matic242999872022-01-29 10:18:586 mins ago0x9a266b700f17638c99501a129f7abfcadae1bf69OUT 0x0a76d8e685e999a0818cb88e97a61e9ee1062bc30 MATIC0.00019724538 2.375191229
0xa8a90b6fe0482d8a6cba7e9f17b19e364fa1f891ada34feb8b1a4762eae02634Transfer Matic242999852022-01-29 10:18:546 mins ago0x9a266b700f17638c99501a129f7abfcadae1bf69OUT 0x0a76d8e685e999a0818cb88e97a61e9ee1062bc30 MATIC0.000218012851 2.625269158
0xb64fa0dec5cf0b250dd7db3f6c7e2b7ebfba30504ec995fb85f941cbebdb5a72Transfer Matic242999832022-01-29 10:18:506 mins ago0x9a266b700f17638c99501a129f7abfcadae1bf69OUT 0x0a76d8e685e999a0818cb88e97a61e9ee1062bc30 MATIC0.000740148633 8.912728597
0x9b070aafb24074762c7ba586c642f4249d03823147c02166f002044e759b0d3fTransfer Matic242999812022-01-29 10:18:466 mins ago0x9a266b700f17638c99501a129f7abfcadae1bf69OUT 0x0a76d8e685e999a0818cb88e97a61e9ee1062bc30 MATIC0.000740141437 8.912641937
0x45cb548d2510c296177d88e0eafba85e36bf1ef6a95e0c93311058819b8337aeTransfer Matic242999792022-01-29 10:18:426 mins ago0x9a266b700f17638c99501a129f7abfcadae1bf69OUT 0x0a76d8e685e999a0818cb88e97a61e9ee1062bc30 MATIC0.000778547329 9.375118365
[ Download CSV Export 
Latest 7 internal transactions
Parent Txn Hash Block From To Value
0xcd67ee22d3ce978c0171e5038c44db01bc2bc581d0640aa8c4a60354fc70c66b241729272022-01-26 4:39:503 days 5 hrs ago 0x0a76d8e685e999a0818cb88e97a61e9ee1062bc30x9a266b700f17638c99501a129f7abfcadae1bf69600 MATIC
0x281129a83ecdbfb91465c4c4ad3f7a5a0a302a176021ead0b29b1a4a7471a94a236257352022-01-12 8:11:0517 days 2 hrs ago 0x0a76d8e685e999a0818cb88e97a61e9ee1062bc30x9a266b700f17638c99501a129f7abfcadae1bf69300 MATIC
0x042ae447948703b9b5aabb511c6954fe5887970b8e67ed6c18b731703d738fe3232310682022-01-01 18:16:0227 days 16 hrs ago 0x0a76d8e685e999a0818cb88e97a61e9ee1062bc30x9a266b700f17638c99501a129f7abfcadae1bf69300 MATIC
0x9d6612ab19925d17064fcf42ad70254a575c707c6b0f6187a7bf9664302a3c8a225877172021-12-16 10:03:3544 days 22 mins ago 0x0a76d8e685e999a0818cb88e97a61e9ee1062bc30x9a266b700f17638c99501a129f7abfcadae1bf69400 MATIC
0xf113c926f077fad98d3e68045ae358e1388a38d3c2b1fe28662f03f59a81430c223512212021-12-10 9:00:0250 days 1 hr ago 0x0a76d8e685e999a0818cb88e97a61e9ee1062bc30x9a266b700f17638c99501a129f7abfcadae1bf69100 MATIC
0x719c21c923b427bb37c71823ab2b6a26d9ce404edad716c7d8d2843948886417223511462021-12-10 8:57:2850 days 1 hr ago 0x0a76d8e685e999a0818cb88e97a61e9ee1062bc30x9a266b700f17638c99501a129f7abfcadae1bf69100 wei
0x0ac09b74dea9162d9feb86124784aefd9d0bb86c0daac412fc6b934e45d0ccfa221166202021-12-04 6:57:0056 days 3 hrs ago 0x0a76d8e685e999a0818cb88e97a61e9ee1062bc30x9a266b700f17638c99501a129f7abfcadae1bf690.2 MATIC
[ Download CSV Export 
Loading

Contract Name:
0 MATIC

Compiler Version
0

Optimization Enabled:
0 MATIC

Other Settings:
-NA-
Block Transaction Gas Used Reward
Age Block Fee Address BC Fee Address Voting Power Jailed Incoming
Block Uncle Number Difficulty Gas Used Reward
Loading
Loading
Make sure to use the "Vote Down" button for any spammy posts, and the "Vote Up" for interesting conversations.